Weather History for Dryden, TX

Change the Weather History Date:

Tuesday, May 6, 2014

  Actual Average (KFST) Record (KFST)
Temperature  
Mean Temperature 86 °F -  
Max Temperature 105 °F 87 °F 99 °F (2000)
Min Temperature 68 °F 58 °F 46 °F (1999)
Cooling Degree Days 21    
Growing Degree Days 36 (Base 50)    
Moisture  
Dew Point 35 °F    
Average Humidity 21    
Maximum Humidity 63    
Minimum Humidity 4    
Precipitation  
Precipitation 0.00 in - - ()
Sea Level Pressure  
Sea Level Pressure 29.65 in    
Wind  
Wind Speed 9 mph (SW)    
Max Wind Speed 26 mph    
Max Gust Speed 36 mph    
Averages and records for this station are not official NWS values.
T = Trace of Precipitation, MM = Missing Value Source: NWS Daily Summary

Daily Weather History Graph

Daily Weather History Graph

Search for Another Location

Airport:

Trip Planner

Search our weather history database for the weather conditions in past years. The results will help you decide how hot, cold, wet, or windy it might be!

Date:

Astronomy

May. 06, 2014 Rise Set
Actual Time 7:01 AM CDT 8:29 PM CDT
Civil Twilight 6:36 AM CDT 8:55 PM CDT
Nautical Twilight 6:05 AM CDT 9:26 PM CDT
Astronomical Twilight 5:33 AM CDT 9:58 PM CDT
Moon 1:14 PM CDT (5/6) 1:54 AM CDT (5/6)
Length of Visible Light 14h 19m
Length of Day
13h 27m
Waxing Crescent, 46% of the Moon is Illuminated
May 6
Waxing Crescent
May 6
First Quarter
May 14
Full
May 21
Last Quarter
May 28
New

Hourly Weather History & Observations

Time (CDT) Temp. Heat Index Dew Point Humidity Pressure Visibility Wind Dir Wind Speed Gust Speed Precip Events Conditions
12:53 AM 79.0 °F - 46.0 °F 31% 29.69 in - ENE 4.6 mph - N/A   Unknown
1:53 AM 78.1 °F - 46.9 °F 33% 29.66 in - NNE 4.6 mph - N/A   Unknown
2:53 AM 75.0 °F - 46.9 °F 37% 29.65 in - NNE 4.6 mph - N/A   Unknown
6:53 AM 68.0 °F - 55.0 °F 63% 29.69 in - ENE 3.5 mph - N/A   Unknown
7:53 AM 72.0 °F - 57.0 °F 59% 29.72 in - NNE 5.8 mph - N/A   Unknown
9:53 AM 78.1 °F - 59.0 °F 52% 29.72 in - SE 3.5 mph - N/A   Unknown
10:53 AM 84.9 °F 83.7 °F 55.9 °F 37% 29.72 in - Variable 3.5 mph - N/A   Unknown
11:53 AM 93.0 °F - 45.0 °F 19% 29.69 in - WSW 8.1 mph - N/A   Unknown
12:53 PM 95.0 °F - 33.1 °F 11% 29.66 in - North - - N/A   Unknown
1:45 PM 100.0 °F - 17.1 °F 5% 29.75 in - SSW 8.1 mph 25.3 mph N/A   Unknown
1:53 PM 100.0 °F - 17.1 °F 5% 29.62 in - West 6.9 mph 19.6 mph N/A   Unknown
2:53 PM 102.9 °F - 12.9 °F 4% 29.60 in - WSW 12.7 mph 28.8 mph N/A   Unknown
3:53 PM 102.9 °F - 12.0 °F 4% 29.57 in - SSW 23.0 mph 31.1 mph N/A   Unknown
4:01 PM 102.9 °F - 12.9 °F 4% 29.70 in - SSW 16.1 mph 31.1 mph N/A   Unknown
4:53 PM 104.0 °F - 14.0 °F 4% 29.53 in - SW 21.9 mph - N/A   Unknown
5:53 PM 104.0 °F - 10.9 °F 4% 29.52 in - South 16.1 mph 26.5 mph N/A   Unknown
6:53 PM 100.9 °F - 14.0 °F 4% 29.55 in - SSW 12.7 mph - N/A   Unknown
7:53 PM 96.1 °F - 45.0 °F 17% 29.58 in - South 11.5 mph 23.0 mph N/A   Unknown
8:53 PM 93.9 °F - 34.0 °F 12% 29.62 in - SSW 19.6 mph 31.1 mph N/A   Unknown
9:53 PM 91.0 °F - 39.0 °F 16% 29.69 in - WSW 26.5 mph 35.7 mph N/A   Unknown
10:53 PM 86.0 °F - 46.9 °F 26% 29.64 in - North 10.4 mph - N/A   Unknown
11:53 PM 86.0 °F - 44.1 °F 23% 29.65 in - SW 9.2 mph - N/A   Unknown